Hourly Weather Roundup
Issued by NWS Central Illinois

Home | Current Version | Previous Version | Text Only | Print | Product List | Glossary On
Versions: 1 2 3 4 5 6 7 8 9 10 11 12 13 14 15 16 17 18 19 20 21 22 23 24 25 26 27 28 29 30 31 32 33 34 35 36 37 38 39 40 41 42 43 44 45 46 47 48 49 50
000
NZUS43 KILX 171010
HWRILX

Area Weather Roundup
National Weather Service Lincoln IL
400 AM CST WED JAN 17 2018

NOTE:  "FAIR" indicates few or no clouds below 12,000 feet, with
       no sigificant weather and/or obstructions to visibility.


CITY           SKY/WX    TMP DP  RH WIND       PRES   REMARKS
Bloomington    FAIR       0  -4  83 W12       30.58S WCI -17
Champaign      FAIR      -1  -5  82 W10       30.59S WCI -17
Danville       FAIR       1  -2  85 W7        30.54S WCI -12
Decatur        CLOUDY     2   0  91 NW13      30.61S FOG     WCI -15
Effingham      FAIR       3  -1  85 W7        30.65S WCI  -9
Flora          FAIR       8   2  78 NW9       30.65F WCI  -6
Galesburg      FAIR      -3  -6  88 W6        30.62S WCI -15
Jacksonville   CLOUDY     1  -4  79 W6        30.65F WCI -10
Lacon          FAIR      -1  -4  86 SW3       30.60F
Lawrenceville  FAIR       4   1  88 W6        30.64S WCI  -7
Litchfield     CLEAR      1  -2  84 W8        30.65S WCI -12
$$


CITY           SKY/WX    TMP DP  RH WIND       PRES   REMARKS
Lincoln        FAIR       3  -1  85 W6        30.62F WCI  -8
Macomb         CLOUDY    -3  -6  87 W6        30.65F WCI -16
Mattoon        FAIR       2  -2  83 W12       30.59S WCI -15
Mt Carmel AP   FAIR       6   0  78 W9        30.64S WCI  -8
Olney-Noble AP FAIR       4  -1  78 W6        30.65S WCI  -7
Paris AP       FAIR      -1  -4  87 W10       30.60S WCI -17
Peoria         FAIR       0  -5  79 W5        30.62F WCI -10
Pontiac        FAIR       0  -1  92 W14       30.59S WCI -18
Rantoul        FAIR       1  -2  85 W10       30.57S WCI -14
Robinson       FAIR       0  -3  87 W6        30.64S WCI -12
Springfield    FAIR      -1  -5  82 W6        30.64F WCI -13
Taylorville    FAIR       1  -3  83 W7        30.64S WCI -12
$$

...REGIONAL REPORTS...


CITY           SKY/WX    TMP DP  RH WIND       PRES   REMARKS
Chicago O`Hare FAIR       8   3  80 W8        30.52F WCI  -4
Kankakee       FAIR       1  -3  83 W9        30.57S WCI -14
Moline         FAIR       0  -4  83 W5        30.60F WCI -10
Mount Sterling CLOUDY    -1  -4  85 W6        30.63F WCI -13
Mount Vernon   FAIR       3  -1  83 CALM      30.67S
Pittsfield     CLOUDY     2  -2  82 W3        30.66F
Quincy         CLOUDY    -1  -4  87 W6        30.64F WCI -13
Rockford       FAIR      -1  -4  87 S5        30.55F WCI -11
$$


CITY           SKY/WX    TMP DP  RH WIND       PRES   REMARKS
Burlington     CLOUDY    -4  -9  79 SW3       30.62F
Cedar Rapids   FAIR      -3  -8  79 W6        30.56F WCI -15
Des Moines     CLOUDY    -2  -7  79 SW3       30.59F
Kirksville     CLOUDY    -2  -4  91 CALM      30.63F
Ottumwa        CLOUDY    -3  -9  75 SW3       30.61F
St Louis       CLEAR      4   0  83 W6        30.68S WCI  -7
$$


CITY           SKY/WX    TMP DP  RH WIND       PRES   REMARKS
Terre Haute    FAIR      -3  -7  82 W5        30.60F WCI -13
Evansville     CLOUDY    10   6  84 NW7       30.65S WCI  -1
Indianapolis   MOCLDY     2   0  91 W8        30.54F WCI -12
Lafayette      FAIR       1  -1  91 W5        30.56S WCI  -9
Madison        FAIR       3  -1  83 CALM      30.49F
Milwaukee      FAIR      10   6  84 W6        30.47F WCI   0
$$





USA.gov is the U.S. government's official web portal to all federal, state and local government web resources and services.